[[{"header":{"parameterUnit":"m.s-1","parameterCategory":2,"la1":30.2991,"la2":30.254,"lo1":-89.0895,"lo2":-89.0444,"dy":0.0017,"dx":0.0017,"nx":28,"ny":28,"refTime":"2023-10-12T03:00:00:Z","depth":"0","parameterNumber":2,"parameterNumberName":"U-component_of_CURRENTS"},"data":[0,0,0,0,0,0,0,0,0,0,0,0,0,0,0,0,0,0,0,0,0,0,0,0,0,0,0,0,0,0,0,0,0,0,0,0,0,0,0,0,0,0,0,0,0,0,0,0,0,0,0,0,0,0,0,0,0,0,-0.426,-0.426,0,-0.4281,-0.4281,-0.4281,-0.4268,-0.4268,-0.4267,-0.4267,-0.4194,-0.4192,-0.419,0,0,0,0,0,0,0,0,0,0,0,0,0,-0.4153,-0.4155,-0.426,-0.426,-0.4261,-0.4281,-0.4281,-0.4281,-0.4268,-0.4268,-0.4267,-0.4267,-0.4194,-0.4192,-0.419,0,0,0,0,0,0,0,0,0,0,0,0,0,-0.4185,-0.4156,-0.4259,-0.4261,-0.4261,-0.4281,-0.4281,-0.428,-0.4268,-0.4268,-0.4267,-0.4267,-0.4195,-0.4192,-0.419,-0.4178,0,0,-0.4181,-0.418,0,0,0,0,0,0,0,0,-0.4183,-0.4188,-0.426,-0.4261,-0.4262,-0.4276,-0.4217,-0.4243,-0.4268,-0.426,-0.4267,-0.4267,-0.4216,-0.4211,-0.421,-0.4174,-0.4171,-0.4181,-0.418,-0.4178,-0.4178,0,0,0,0,0,0,0,-0.4181,-0.4187,-0.4263,-0.4261,-0.4262,-0.4242,-0.4246,-0.4221,-0.4233,-0.4261,-0.4261,-0.4271,-0.4215,-0.4213,-0.4208,-0.417,-0.4181,-0.4179,-0.4177,-0.4176,-0.4124,-0.4124,0,0,0,0,0,0,-0.4192,-0.4185,-0.4262,-0.4264,-0.4226,-0.4244,-0.4249,-0.4267,-0.4236,-0.4233,-0.4272,-0.4271,-0.4218,-0.4211,-0.4205,-0.4205,-0.4178,-0.4176,-0.4174,-0.4123,-0.4124,-0.4124,0,0,0,0,0,0,-0.419,-0.4199,-0.4262,-0.4228,-0.4235,-0.4247,-0.4268,-0.4268,-0.4271,-0.4246,-0.424,-0.4276,-0.4217,-0.4209,-0.4192,-0.4201,-0.4175,-0.4172,-0.4123,-0.4124,-0.4124,-0.4193,0,0,0,0,0,0,-0.4186,-0.4198,-0.4207,-0.423,-0.4238,-0.4283,-0.4269,-0.4269,-0.428,-0.4279,-0.4247,-0.424,-0.4216,-0.4196,-0.4189,-0.4197,-0.417,-0.4123,-0.4123,-0.4124,-0.419,-0.4196,-0.42,0,0,0,0,0,-0.4183,-0.4205,-0.4207,-0.4216,-0.4253,-0.4285,-0.4287,-0.429,-0.4281,-0.4289,-0.4266,-0.4242,-0.4194,-0.4195,-0.4186,-0.4193,-0.4123,-0.4123,-0.4124,-0.4188,-0.4195,-0.42,0,0,0,0,0,0,-0.4161,-0.4207,-0.421,-0.4243,-0.4265,-0.4285,-0.4293,-0.4295,-0.4284,-0.4277,-0.4246,-0.4238,-0.4224,-0.4198,-0.42,-0.4178,-0.4153,-0.4152,-0.4205,-0.4211,-0.4216,-0.4234,-0.4168,0,0,0,0,0,-0.4163,-0.4189,-0.4226,-0.4249,-0.4264,-0.4277,-0.4287,-0.4293,-0.4293,-0.4289,-0.4267,-0.4239,-0.4219,-0.4208,-0.4183,-0.4173,-0.4173,-0.417,-0.4175,-0.418,-0.4189,-0.4184,-0.419,-0.4126,-0.4126,-0.4126,0,0,-0.4158,-0.4188,-0.4201,-0.4246,-0.4259,-0.4296,-0.4281,-0.4305,-0.4326,-0.428,-0.4285,-0.4254,-0.422,-0.4211,-0.4202,-0.4191,-0.4206,-0.418,-0.4185,-0.4191,-0.4186,-0.4192,-0.4198,-0.4126,-0.4126,-0.4126,0,0,-0.4175,-0.4193,-0.4225,-0.4253,-0.429,-0.4303,-0.4315,-0.4336,-0.4335,-0.434,-0.431,-0.429,-0.4258,-0.4242,-0.4228,-0.4243,-0.423,-0.4228,-0.4271,-0.4268,-0.4273,-0.4278,-0.4325,-0.4334,-0.4234,-0.4234,-0.4234,0,-0.4166,-0.4215,-0.4236,-0.4281,-0.4306,-0.4313,-0.4353,-0.4361,-0.4369,-0.4371,-0.4348,-0.4311,-0.4276,-0.4276,-0.4278,-0.4256,-0.4266,-0.4255,-0.4276,-0.4281,-0.4284,-0.4331,-0.4339,-0.4237,-0.4237,-0.4236,-0.4236,0,-0.4212,-0.4252,-0.4274,-0.4333,-0.4363,-0.4394,-0.4423,-0.4437,-0.4429,-0.4432,-0.4421,-0.4376,-0.4355,-0.4339,-0.4312,-0.4321,-0.4327,-0.4283,-0.4267,-0.4296,-0.4343,-0.435,-0.4242,-0.4241,-0.424,-0.4239,0,0,-0.4172,-0.4286,-0.4286,-0.4328,-0.4392,-0.4419,-0.4463,-0.4499,-0.4531,-0.4505,-0.4533,-0.4479,-0.4448,-0.443,-0.439,-0.4383,-0.4424,-0.4349,-0.4347,-0.4408,-0.4459,-0.4551,-0.4568,-0.4381,-0.4382,-0.4382,-0.4496,0,-0.4191,-0.4285,-0.4334,-0.4405,-0.4453,-0.449,-0.4537,-0.4568,-0.4581,-0.4609,-0.4561,-0.4556,-0.4486,-0.4473,-0.4457,-0.4426,-0.4441,-0.4401,-0.4411,-0.4413,-0.45,-0.4578,-0.4593,-0.4702,-0.4503,-0.4504,-0.4505,0,-0.4197,-0.4266,-0.4344,-0.4455,-0.4478,-0.4515,-0.4588,-0.4633,-0.468,-0.4687,-0.4678,-0.4653,-0.4637,-0.4568,-0.4547,-0.4525,-0.4502,-0.448,-0.4483,-0.4548,-0.4518,-0.4631,-0.4723,-0.4752,-0.4517,-0.4516,-0.4515,0,-0.4135,-0.426,-0.4318,-0.4354,-0.4481,-0.451,-0.4565,-0.4636,-0.4693,-0.4726,-0.4772,-0.474,-0.4736,-0.4686,-0.4646,-0.4594,-0.4652,-0.4569,-0.4644,-0.4652,-0.4658,-0.4665,-0.4786,-0.4571,-0.457,-0.457,-0.457,0,-0.4117,-0.416,-0.4291,-0.432,-0.44,-0.4483,-0.456,-0.4618,-0.4716,-0.4796,-0.479,-0.4844,-0.4761,-0.4786,-0.4716,-0.4741,-0.4707,-0.4689,-0.4691,-0.4688,-0.4696,-0.4713,-0.4662,-0.4574,-0.4573,-0.4572,-0.4572,0,-0.4026,-0.4113,-0.4194,-0.4328,-0.437,-0.4415,-0.4572,-0.4638,-0.473,-0.4842,-0.4857,-0.4933,-0.4967,-0.4939,-0.4899,-0.4861,-0.4828,-0.4861,-0.4901,-0.4906,-0.4988,-0.4938,-0.4907,-0.4834,-0.4963,-0.4966,-0.4969,0,-0.3988,-0.4017,-0.4174,-0.4221,-0.4273,-0.4369,-0.445,-0.4603,-0.4695,-0.4895,-0.495,-0.5051,-0.5148,-0.519,-0.5147,-0.5137,-0.4962,-0.5099,-0.4987,-0.5046,-0.499,-0.4835,-0.4761,-0.5033,-0.5035,-0.5038,-0.504,0,-0.3891,-0.394,-0.4,-0.4127,-0.421,-0.4334,-0.4463,-0.4566,-0.4757,-0.4916,-0.5122,-0.5238,-0.5359,-0.5425,-0.5428,-0.5329,-0.5052,-0.5149,-0.5171,-0.5049,-0.492,-0.4834,-0.4938,-0.5061,-0.5059,-0.5057,-0.5056,-0.5055,-0.3779,-0.38,-0.3881,-0.3984,-0.411,-0.4243,-0.4276,-0.4513,-0.4712,-0.4956,-0.5169,-0.5425,-0.5598,-0.5649,-0.5571,-0.5488,-0.527,-0.5328,-0.5267,-0.5109,-0.5025,-0.5227,-0.5368,-0.5368,-0.5368,-0.5367,-0.5367,0,-0.3603,-0.3644,-0.3735,-0.3846,-0.3914,-0.4039,-0.4228,-0.4256,-0.4469,-0.492,-0.517,-0.5689,-0.5825,-0.5886,-0.5896,-0.5686,-0.5438,-0.5471,-0.5243,-0.5159,-0.5345,-0.5341,-0.553,-0.553,-0.553,-0.553,-0.553,-0.553,-0.3491,-0.3486,-0.3548,-0.3587,-0.3663,-0.3658,-0.3709,-0.3867,-0.4142,-0.4639,-0.5143,-0.5535,-0.5636,-0.6153,-0.6043,-0.5798,-0.5508,-0.5348,-0.5247,-0.5417,-0.5397,-0.5378,-0.5369,-0.5561,-0.5561,-0.5003,-0.4999,-0.4996]},{"header":{"parameterUnit":"m.s-1","parameterCategory":2,"la1":30.2991,"la2":30.254,"lo1":-89.0895,"lo2":-89.0444,"dy":0.0017,"dx":0.0017,"nx":28,"ny":28,"refTime":"2023-10-12T03:00:00:Z","depth":"0","parameterNumber":3,"parameterNumberName":"V-component_of_CURRENTS"},"data":[0,0,0,0,0,0,0,0,0,0,0,0,0,0,0,0,0,0,0,0,0,0,0,0,0,0,0,0,0,0,0,0,0,0,0,0,0,0,0,0,0,0,0,0,0,0,0,0,0,0,0,0,0,0,0,0,0,0,-0.0597,-0.0596,0,-0.0439,-0.0437,-0.0435,-0.0354,-0.0354,-0.0354,-0.0354,-0.021,-0.0206,-0.0202,0,0,0,0,0,0,0,0,0,0,0,0,0,-0.0769,-0.0767,-0.0598,-0.0596,-0.0594,-0.0439,-0.0437,-0.0435,-0.0354,-0.0354,-0.0354,-0.0354,-0.0211,-0.0206,-0.0202,0,0,0,0,0,0,0,0,0,0,0,0,0,-0.0662,-0.0766,-0.0598,-0.0534,-0.0527,-0.044,-0.0437,-0.0434,-0.0354,-0.0354,-0.0354,-0.0354,-0.0212,-0.0207,-0.0201,-0.0171,0,0,-0.0184,-0.0182,0,0,0,0,0,0,0,0,-0.0668,-0.0656,-0.0546,-0.0538,-0.053,-0.0416,-0.0444,-0.0347,-0.0355,-0.0421,-0.0354,-0.0354,-0.0279,-0.0268,-0.024,-0.0164,-0.0158,-0.0184,-0.018,-0.0178,-0.0176,0,0,0,0,0,0,0,-0.0676,-0.0662,-0.0535,-0.0543,-0.0534,-0.0492,-0.0477,-0.0425,-0.0354,-0.0415,-0.0408,-0.039,-0.0275,-0.0245,-0.0236,-0.0156,-0.0184,-0.0179,-0.0176,-0.0173,-0.0027,-0.0026,0,0,0,0,0,0,-0.0697,-0.0669,-0.0541,-0.0531,-0.0599,-0.049,-0.0473,-0.0453,-0.0354,-0.0338,-0.039,-0.0386,-0.0255,-0.0242,-0.0231,-0.018,-0.0178,-0.0173,-0.017,-0.0028,-0.0027,-0.0026,0,0,0,0,0,0,-0.0701,-0.0687,-0.0547,-0.0596,-0.0575,-0.0487,-0.0465,-0.045,-0.042,-0.0335,-0.032,-0.0375,-0.0254,-0.0238,-0.0177,-0.0174,-0.017,-0.0165,-0.0028,-0.0027,-0.0027,-0.0084,0,0,0,0,0,0,-0.0707,-0.0689,-0.0689,-0.0597,-0.0573,-0.0502,-0.0465,-0.0447,-0.0408,-0.0402,-0.0317,-0.0303,-0.0253,-0.0186,-0.0171,-0.0166,-0.0161,-0.0029,-0.0028,-0.0027,-0.0083,-0.0085,-0.0087,0,0,0,0,0,-0.0713,-0.0713,-0.0689,-0.0674,-0.0573,-0.0502,-0.0486,-0.0423,-0.0408,-0.0396,-0.0333,-0.0306,-0.0169,-0.018,-0.0164,-0.0157,-0.0029,-0.0028,-0.0027,-0.0082,-0.0085,-0.0087,0,0,0,0,0,0,-0.0789,-0.0701,-0.0674,-0.0648,-0.0584,-0.0488,-0.0473,-0.043,-0.037,-0.0369,-0.0293,-0.0274,-0.022,-0.018,-0.0194,-0.0111,-0.0097,-0.0093,-0.0145,-0.0147,-0.0149,-0.0152,-0.0156,0,0,0,0,0,-0.0806,-0.0782,-0.0692,-0.0673,-0.0646,-0.0563,-0.0529,-0.0485,-0.0416,-0.039,-0.0325,-0.0261,-0.0201,-0.0169,-0.0111,-0.0066,-0.0019,-0.0051,-0.0054,-0.0056,-0.0047,0.0017,0.0021,-0.0022,-0.0022,-0.0022,0,0,-0.0833,-0.078,-0.0768,-0.0688,-0.0636,-0.0596,-0.0542,-0.0497,-0.0457,-0.0385,-0.0322,-0.0267,-0.0191,-0.0135,-0.0108,-0.0102,-0.0018,-0.0054,-0.0057,-0.0046,0.0019,0.0023,0.0027,-0.0021,-0.0022,-0.0022,0,0,-0.0872,-0.0826,-0.082,-0.0767,-0.0691,-0.0632,-0.0623,-0.0529,-0.0483,-0.0416,-0.0355,-0.0291,-0.0205,-0.0139,-0.0099,-0.0078,-0.0033,-0.0073,-0.0085,-0.0024,-0.002,-0.0016,0.0048,0.0058,-0.0074,-0.0075,-0.0075,0,-0.0912,-0.0883,-0.0808,-0.0783,-0.0747,-0.0654,-0.0637,-0.0568,-0.0465,-0.0422,-0.0408,-0.0258,-0.0201,-0.0114,-0.0108,-0.0082,-0.0045,-0.0085,-0.0028,-0.0023,-0.0017,0.0047,0.0059,-0.0077,-0.0077,-0.0077,-0.0076,0,-0.0936,-0.0914,-0.0906,-0.084,-0.079,-0.0763,-0.0659,-0.0604,-0.0543,-0.0468,-0.0372,-0.0281,-0.0192,-0.0169,-0.0131,-0.0064,-0.0049,-0.0041,-0.0026,-0.0017,0.0051,0.0064,-0.0081,-0.008,-0.0079,-0.0079,0,0,-0.1033,-0.0944,-0.0945,-0.0928,-0.0822,-0.0788,-0.0713,-0.0617,-0.057,-0.0464,-0.0393,-0.0282,-0.0229,-0.0179,-0.012,-0.0063,0.0003,-0.0047,-0.0043,0.0007,0.0137,0.0251,0.0277,0.0009,0.0011,0.0012,0.0168,0,-0.1082,-0.1069,-0.0993,-0.0976,-0.0963,-0.0847,-0.0788,-0.0685,-0.0585,-0.049,-0.0365,-0.0284,-0.0232,-0.0201,-0.0129,-0.0024,0.0035,-0.004,0.013,0.0135,0.0228,0.0296,0.0379,0.0535,0.0182,0.0184,0.0186,0,-0.1137,-0.1119,-0.1122,-0.105,-0.1033,-0.1001,-0.0893,-0.0824,-0.0654,-0.0576,-0.045,-0.0343,-0.0208,-0.0191,0.0011,-0.0045,0.0039,0.0115,0.0123,0.0262,0.0276,0.0471,0.0573,0.0838,0.0207,0.0206,0.0204,0,-0.1263,-0.121,-0.1222,-0.1197,-0.1098,-0.1073,-0.1015,-0.0865,-0.0805,-0.063,-0.0565,-0.0379,-0.0288,-0.0146,0.0052,0.0018,0.0268,0.0241,0.0428,0.0436,0.0563,0.0581,0.0939,0.0365,0.0365,0.0364,0.0364,0,-0.1351,-0.1357,-0.129,-0.1298,-0.1316,-0.1193,-0.1171,-0.1073,-0.0923,-0.0848,-0.0634,-0.0529,-0.0278,-0.0085,0.0058,0.0323,0.0284,0.0459,0.0499,0.0547,0.056,0.084,0.0942,0.037,0.0369,0.0368,0.0367,0,-0.1487,-0.1435,-0.1461,-0.1397,-0.1382,-0.1404,-0.1305,-0.128,-0.1105,-0.0994,-0.0941,-0.0636,-0.0354,-0.0077,0.0189,0.0345,0.0726,0.065,0.0705,0.075,0.1166,0.126,0.1642,0.1673,0.0887,0.0891,0.0894,0,-0.155,-0.158,-0.1581,-0.1625,-0.1606,-0.1599,-0.1596,-0.1421,-0.1363,-0.1058,-0.1017,-0.0678,-0.0409,0.009,0.0447,0.0797,0.0907,0.1031,0.0993,0.1252,0.1384,0.1426,0.1421,0.1131,0.1136,0.114,0.1143,0,-0.1687,-0.1698,-0.1732,-0.184,-0.1871,-0.1873,-0.1826,-0.1794,-0.1555,-0.1387,-0.1106,-0.0846,-0.0246,0.0277,0.0786,0.0961,0.1238,0.1125,0.1386,0.1627,0.1705,0.173,0.0959,0.118,0.1176,0.1174,0.1172,0.117,-0.1803,-0.1887,-0.1961,-0.2068,-0.2114,-0.2137,-0.2153,-0.2014,-0.1882,-0.1542,-0.1222,-0.0696,0.0188,0.097,0.1138,0.1703,0.1562,0.1833,0.1928,0.1948,0.1998,0.1322,0.1591,0.159,0.1589,0.1588,0.1587,0,-0.1944,-0.2042,-0.2175,-0.2294,-0.241,-0.2352,-0.2305,-0.2263,-0.2109,-0.158,-0.1197,0.0028,0.0796,0.1499,0.2377,0.2563,0.245,0.2624,0.2706,0.265,0.2078,0.211,0.2514,0.2514,0.2514,0.2513,0.2513,0.2513,-0.2021,-0.22,-0.2288,-0.2547,-0.2622,-0.2722,-0.2705,-0.2543,-0.2184,-0.1357,-0.0517,0.0117,0.1374,0.2935,0.3578,0.3484,0.3523,0.3474,0.3476,0.3134,0.3066,0.3001,0.306,0.3657,0.3658,0.3971,0.3976,0.3979]}],[{"header":{"parameterUnit":"m.s-1","parameterCategory":2,"la1":30.2991,"la2":30.254,"lo1":-89.0895,"lo2":-89.0444,"dy":0.0017,"dx":0.0017,"nx":28,"ny":28,"refTime":"2023-10-12T03:00:00:Z","depth":"2","parameterNumber":2,"parameterNumberName":"U-component_of_CURRENTS"},"data":[0,0,0,0,0,0,0,0,0,0,0,0,0,0,0,0,0,0,0,0,0,0,0,0,0,0,0,0,0,0,0,0,0,0,0,0,0,0,0,0,0,0,0,0,0,0,0,0,0,0,0,0,0,0,0,0,0,0,-0.4218,-0.4219,0,-0.4239,-0.4239,-0.4239,-0.4227,-0.4226,-0.4226,-0.4226,-0.4154,-0.4152,-0.415,0,0,0,0,0,0,0,0,0,0,0,0,0,-0.4112,-0.4114,-0.4218,-0.4219,-0.422,-0.4239,-0.4239,-0.4239,-0.4227,-0.4226,-0.4226,-0.4226,-0.4155,-0.4152,-0.415,0,0,0,0,0,0,0,0,0,0,0,0,0,-0.4144,-0.4115,-0.4218,-0.422,-0.422,-0.4239,-0.4239,-0.4239,-0.4227,-0.4226,-0.4226,-0.4226,-0.4155,-0.4153,-0.415,-0.4138,0,0,-0.4142,-0.4141,0,0,0,0,0,0,0,0,-0.4142,-0.4147,-0.4219,-0.422,-0.422,-0.4234,-0.4176,-0.4202,-0.4227,-0.4219,-0.4226,-0.4226,-0.4176,-0.4171,-0.417,-0.4134,-0.4131,-0.4142,-0.414,-0.4139,-0.4138,0,0,0,0,0,0,0,-0.414,-0.4146,-0.4221,-0.422,-0.4221,-0.4201,-0.4205,-0.418,-0.4193,-0.422,-0.422,-0.423,-0.4175,-0.4173,-0.4168,-0.413,-0.4142,-0.4139,-0.4138,-0.4137,-0.4085,-0.4085,0,0,0,0,0,0,-0.4151,-0.4144,-0.4221,-0.4223,-0.4186,-0.4203,-0.4208,-0.4226,-0.4195,-0.4192,-0.4231,-0.423,-0.4177,-0.4171,-0.4165,-0.4166,-0.4139,-0.4136,-0.4135,-0.4085,-0.4085,-0.4085,0,0,0,0,0,0,-0.4149,-0.4158,-0.422,-0.4187,-0.4194,-0.4206,-0.4226,-0.4227,-0.423,-0.4205,-0.4199,-0.4235,-0.4177,-0.4169,-0.4153,-0.4162,-0.4135,-0.4133,-0.4084,-0.4085,-0.4085,-0.4155,0,0,0,0,0,0,-0.4146,-0.4157,-0.4166,-0.4188,-0.4197,-0.4242,-0.4227,-0.4227,-0.4239,-0.4238,-0.4207,-0.42,-0.4176,-0.4157,-0.415,-0.4158,-0.4131,-0.4084,-0.4084,-0.4085,-0.4152,-0.4157,-0.4162,0,0,0,0,0,-0.4142,-0.4164,-0.4166,-0.4175,-0.4212,-0.4243,-0.4245,-0.4248,-0.424,-0.4248,-0.4226,-0.4201,-0.4154,-0.4155,-0.4147,-0.4154,-0.4084,-0.4084,-0.4085,-0.415,-0.4156,-0.4162,0,0,0,0,0,0,-0.4121,-0.4166,-0.4169,-0.4203,-0.4225,-0.4243,-0.4252,-0.4254,-0.4244,-0.4237,-0.4206,-0.4198,-0.4185,-0.4159,-0.4161,-0.4139,-0.4114,-0.4113,-0.4166,-0.4172,-0.4177,-0.4196,-0.4128,0,0,0,0,0,-0.4123,-0.4149,-0.4185,-0.4208,-0.4224,-0.4236,-0.4246,-0.4253,-0.4253,-0.4249,-0.4227,-0.42,-0.418,-0.4169,-0.4144,-0.4135,-0.4135,-0.4132,-0.4137,-0.4142,-0.4151,-0.4146,-0.4152,-0.4087,-0.4087,-0.4087,0,0,-0.4119,-0.4148,-0.4161,-0.4205,-0.4219,-0.4255,-0.4241,-0.4265,-0.4286,-0.424,-0.4246,-0.4214,-0.418,-0.4172,-0.4163,-0.4152,-0.4168,-0.4142,-0.4147,-0.4153,-0.4148,-0.4154,-0.416,-0.4087,-0.4087,-0.4087,0,0,-0.4135,-0.4154,-0.4185,-0.4214,-0.425,-0.4263,-0.4275,-0.4296,-0.4296,-0.4301,-0.4271,-0.4251,-0.422,-0.4203,-0.4189,-0.4205,-0.4192,-0.4191,-0.4234,-0.423,-0.4236,-0.4241,-0.4288,-0.4296,-0.4196,-0.4196,-0.4196,0,-0.4127,-0.4175,-0.4196,-0.4241,-0.4266,-0.4273,-0.4313,-0.4321,-0.433,-0.4332,-0.431,-0.4272,-0.4238,-0.4238,-0.424,-0.4218,-0.4229,-0.4217,-0.4239,-0.4243,-0.4247,-0.4293,-0.4302,-0.4199,-0.4199,-0.4199,-0.4198,0,-0.4172,-0.4212,-0.4234,-0.4294,-0.4323,-0.4354,-0.4384,-0.4398,-0.439,-0.4393,-0.4383,-0.4338,-0.4317,-0.4301,-0.4274,-0.4284,-0.429,-0.4246,-0.423,-0.4258,-0.4305,-0.4313,-0.4204,-0.4203,-0.4202,-0.4201,0,0,-0.4133,-0.4246,-0.4247,-0.4288,-0.4352,-0.4379,-0.4424,-0.4459,-0.4491,-0.4466,-0.4495,-0.4441,-0.4411,-0.4392,-0.4352,-0.4346,-0.4388,-0.4312,-0.431,-0.4371,-0.4422,-0.4513,-0.453,-0.4345,-0.4345,-0.4346,-0.4459,0,-0.4152,-0.4245,-0.4294,-0.4365,-0.4413,-0.445,-0.4497,-0.4529,-0.4542,-0.457,-0.4522,-0.4518,-0.4448,-0.4436,-0.442,-0.4389,-0.4404,-0.4364,-0.4374,-0.4376,-0.4462,-0.454,-0.3953,-0.4011,-0.4466,-0.4467,-0.4468,0,-0.4159,-0.4227,-0.4305,-0.4415,-0.4437,-0.4475,-0.4548,-0.4592,-0.464,-0.4647,-0.4639,-0.4615,-0.4599,-0.453,-0.451,-0.4488,-0.4466,-0.4444,-0.4446,-0.451,-0.448,-0.4046,-0.4008,-0.4481,-0.448,-0.4479,-0.4478,0,-0.4097,-0.4221,-0.4279,-0.4315,-0.4441,-0.447,-0.4525,-0.4596,-0.4653,-0.4687,-0.4733,-0.4701,-0.4698,-0.4649,-0.4609,-0.4557,-0.4615,-0.4532,-0.4606,-0.4614,-0.4108,-0.4072,-0.4534,-0.4534,-0.4534,-0.4534,-0.4533,0,-0.4079,-0.4122,-0.4252,-0.4281,-0.4361,-0.4444,-0.4521,-0.4579,-0.4677,-0.4756,-0.4751,-0.4805,-0.4722,-0.4748,-0.4678,-0.4703,-0.467,-0.4652,-0.4653,-0.4125,-0.4091,-0.4471,-0.4463,-0.4538,-0.4537,-0.4536,-0.4535,0,-0.3989,-0.4076,-0.4156,-0.4289,-0.4332,-0.4376,-0.4532,-0.4598,-0.469,-0.4802,-0.4818,-0.4894,-0.4927,-0.49,-0.486,-0.4822,-0.4809,-0.4822,-0.4261,-0.4199,-0.4794,-0.4787,-0.4915,-0.492,-0.4923,-0.4926,-0.4929,0,-0.3951,-0.398,-0.4136,-0.4183,-0.4235,-0.4331,-0.4411,-0.4563,-0.4655,-0.4855,-0.4909,-0.5009,-0.5066,-0.5109,-0.4881,-0.4816,-0.4955,-0.4432,-0.4239,-0.4847,-0.4835,-0.4822,-0.4811,-0.3576,-0.3568,-0.3561,-0.3555,0,-0.3855,-0.3904,-0.3963,-0.4089,-0.4172,-0.4295,-0.4423,-0.4525,-0.4715,-0.4832,-0.5036,-0.5112,-0.5064,-0.472,-0.4649,-0.452,-0.4393,-0.4307,-0.4997,-0.3649,-0.3614,-0.3595,-0.362,-0.3491,-0.3497,-0.3502,-0.3505,-0.3508,-0.3743,-0.3764,-0.3844,-0.3946,-0.4071,-0.4203,-0.4236,-0.4312,-0.445,-0.4425,-0.4812,-0.4659,-0.4582,-0.4123,-0.3997,-0.3825,-0.4122,-0.3928,-0.3933,-0.395,-0.3853,-0.3835,-0.3735,-0.3742,-0.3749,-0.3755,-0.376,0,-0.3518,-0.3609,-0.3699,-0.3809,-0.3808,-0.4,-0.4187,-0.4002,-0.3957,-0.3994,-0.4003,-0.3581,-0.3405,-0.3396,-0.2967,-0.3041,-0.28,-0.3019,-0.2606,-0.267,-0.2727,-0.2553,-0.2098,-0.2095,-0.2092,-0.2089,0,0,-0.3394,-0.3362,-0.3422,-0.342,-0.3543,-0.3407,-0.3454,-0.3224,-0.3096,-0.2804,-0.2695,-0.2885,-0.3155,-0.2516,-0.2443,-0.2217,-0.2399,-0.2102,-0.3394,-0.2952,-0.3005,-0.319,-0.2995,0,0,0,0,0]},{"header":{"parameterUnit":"m.s-1","parameterCategory":2,"la1":30.2991,"la2":30.254,"lo1":-89.0895,"lo2":-89.0444,"dy":0.0017,"dx":0.0017,"nx":28,"ny":28,"refTime":"2023-10-12T03:00:00:Z","depth":"2","parameterNumber":3,"parameterNumberName":"V-component_of_CURRENTS"},"data":[0,0,0,0,0,0,0,0,0,0,0,0,0,0,0,0,0,0,0,0,0,0,0,0,0,0,0,0,0,0,0,0,0,0,0,0,0,0,0,0,0,0,0,0,0,0,0,0,0,0,0,0,0,0,0,0,0,0,-0.0575,-0.0573,0,-0.0417,-0.0415,-0.0413,-0.0332,-0.0332,-0.0332,-0.0332,-0.0188,-0.0184,-0.0181,0,0,0,0,0,0,0,0,0,0,0,0,0,-0.0746,-0.0744,-0.0575,-0.0573,-0.0571,-0.0417,-0.0415,-0.0413,-0.0333,-0.0332,-0.0332,-0.0332,-0.0189,-0.0185,-0.018,0,0,0,0,0,0,0,0,0,0,0,0,0,-0.0639,-0.0743,-0.0576,-0.0512,-0.0505,-0.0417,-0.0415,-0.0412,-0.0333,-0.0332,-0.0332,-0.0332,-0.0191,-0.0185,-0.018,-0.0149,0,0,-0.0163,-0.016,0,0,0,0,0,0,0,0,-0.0645,-0.0633,-0.0523,-0.0516,-0.0508,-0.0393,-0.0422,-0.0325,-0.0333,-0.0399,-0.0332,-0.0332,-0.0258,-0.0247,-0.0218,-0.0142,-0.0136,-0.0162,-0.0159,-0.0156,-0.0155,0,0,0,0,0,0,0,-0.0653,-0.0639,-0.0513,-0.0521,-0.0512,-0.047,-0.0455,-0.0403,-0.0332,-0.0393,-0.0386,-0.0368,-0.0254,-0.0224,-0.0214,-0.0134,-0.0162,-0.0157,-0.0154,-0.0152,-0.0005,-0.0005,0,0,0,0,0,0,-0.0674,-0.0646,-0.0518,-0.0508,-0.0577,-0.0467,-0.0451,-0.0431,-0.0332,-0.0316,-0.0368,-0.0365,-0.0233,-0.0221,-0.0209,-0.0158,-0.0156,-0.0151,-0.0148,-0.0006,-0.0005,-0.0005,0,0,0,0,0,0,-0.0678,-0.0664,-0.0524,-0.0573,-0.0552,-0.0465,-0.0443,-0.0428,-0.0398,-0.0313,-0.0298,-0.0354,-0.0233,-0.0217,-0.0155,-0.0152,-0.0149,-0.0144,-0.0007,-0.0006,-0.0005,-0.0063,0,0,0,0,0,0,-0.0684,-0.0667,-0.0666,-0.0575,-0.055,-0.048,-0.0443,-0.0425,-0.0386,-0.038,-0.0295,-0.0282,-0.0231,-0.0164,-0.015,-0.0145,-0.0139,-0.0007,-0.0006,-0.0005,-0.0061,-0.0064,-0.0066,0,0,0,0,0,-0.0691,-0.069,-0.0667,-0.0652,-0.055,-0.0479,-0.0464,-0.0401,-0.0386,-0.0374,-0.0311,-0.0284,-0.0148,-0.0159,-0.0142,-0.0136,-0.0008,-0.0007,-0.0005,-0.006,-0.0063,-0.0066,0,0,0,0,0,0,-0.0766,-0.0679,-0.0652,-0.0626,-0.0562,-0.0466,-0.0451,-0.0408,-0.0348,-0.0347,-0.0272,-0.0253,-0.0199,-0.0158,-0.0173,-0.009,-0.0076,-0.0071,-0.0123,-0.0125,-0.0128,-0.0131,-0.0135,0,0,0,0,0,-0.0783,-0.0759,-0.0669,-0.0651,-0.0623,-0.0541,-0.0507,-0.0463,-0.0395,-0.0368,-0.0304,-0.024,-0.018,-0.0148,-0.009,-0.0044,0.0002,-0.003,-0.0032,-0.0035,-0.0026,0.0038,0.0042,-0.0001,-0.0001,-0.0001,0,0,-0.081,-0.0757,-0.0746,-0.0665,-0.0614,-0.0574,-0.052,-0.0475,-0.0435,-0.0363,-0.0301,-0.0245,-0.0169,-0.0113,-0.0087,-0.008,0.0003,-0.0033,-0.0036,-0.0025,0.004,0.0044,0.0048,0.0,-0.0,-0.0,0,0,-0.0849,-0.0804,-0.0797,-0.0745,-0.0669,-0.061,-0.0602,-0.0508,-0.0461,-0.0395,-0.0333,-0.027,-0.0184,-0.0118,-0.0078,-0.0057,-0.0012,-0.0052,-0.0064,-0.0003,0.0001,0.0005,0.0068,0.0079,-0.0053,-0.0053,-0.0053,0,-0.089,-0.086,-0.0786,-0.076,-0.0725,-0.0632,-0.0616,-0.0547,-0.0443,-0.0401,-0.0387,-0.0237,-0.018,-0.0093,-0.0087,-0.0061,-0.0024,-0.0064,-0.0007,-0.0002,0.0003,0.0067,0.0079,-0.0056,-0.0056,-0.0055,-0.0055,0,-0.0914,-0.0891,-0.0883,-0.0818,-0.0769,-0.0741,-0.0637,-0.0583,-0.0522,-0.0446,-0.0351,-0.026,-0.0171,-0.0148,-0.011,-0.0044,-0.0028,-0.002,-0.0005,0.0004,0.0071,0.0085,-0.006,-0.0059,-0.0058,-0.0057,0,0,-0.101,-0.0921,-0.0922,-0.0906,-0.08,-0.0767,-0.0691,-0.0595,-0.0549,-0.0443,-0.0372,-0.0261,-0.0209,-0.0158,-0.0099,-0.0043,0.0023,-0.0026,-0.0022,0.0027,0.0157,0.0269,0.0295,0.0029,0.0031,0.0033,0.0188,0,-0.1059,-0.1047,-0.0971,-0.0954,-0.0941,-0.0825,-0.0766,-0.0664,-0.0564,-0.0469,-0.0345,-0.0264,-0.0212,-0.0181,-0.0109,-0.0004,0.0056,-0.002,0.015,0.0155,0.0246,0.0314,0.0167,0.0303,0.0201,0.0204,0.0205,0,-0.1115,-0.1097,-0.11,-0.1027,-0.1011,-0.0979,-0.0872,-0.0803,-0.0633,-0.0555,-0.043,-0.0323,-0.0188,-0.0171,0.0031,-0.0025,0.0059,0.0135,0.0142,0.028,0.0294,0.028,0.0331,0.0228,0.0227,0.0225,0.0223,0,-0.1241,-0.1188,-0.12,-0.1175,-0.1076,-0.1052,-0.0993,-0.0844,-0.0784,-0.061,-0.0544,-0.0359,-0.0268,-0.0126,0.0071,0.0037,0.0286,0.026,0.0446,0.0454,0.0385,0.0385,0.0384,0.0384,0.0383,0.0383,0.0382,0,-0.1329,-0.1335,-0.1267,-0.1276,-0.1294,-0.1172,-0.1149,-0.1052,-0.0902,-0.0828,-0.0614,-0.051,-0.0259,-0.0066,0.0077,0.0341,0.0302,0.0476,0.0516,0.0364,0.036,0.0334,0.0327,0.0389,0.0387,0.0386,0.0385,0,-0.1464,-0.1413,-0.1439,-0.1375,-0.136,-0.1382,-0.1284,-0.1258,-0.1084,-0.0974,-0.0921,-0.0617,-0.0335,-0.0059,0.0206,0.0362,0.0581,0.0666,0.0491,0.051,0.0696,0.0683,0.089,0.0896,0.0901,0.0905,0.0908,0,-0.1527,-0.1557,-0.1559,-0.1602,-0.1584,-0.1576,-0.1573,-0.1399,-0.1341,-0.1038,-0.0997,-0.066,-0.04,0.0098,0.0381,0.0712,0.0718,0.0804,0.0736,0.0738,0.0755,0.0734,0.0716,0.0603,0.0603,0.0604,0.0604,0,-0.1664,-0.1675,-0.1709,-0.1816,-0.1848,-0.185,-0.1803,-0.1771,-0.1534,-0.1367,-0.1088,-0.0838,-0.0312,0.0066,0.0547,0.0696,0.0753,0.0831,0.0876,0.0523,0.0487,0.0497,0.0484,0.0608,0.0608,0.0607,0.0607,0.0607,-0.178,-0.1863,-0.1937,-0.2044,-0.209,-0.2114,-0.2129,-0.1981,-0.185,-0.1557,-0.1271,-0.0884,-0.0406,0.0214,0.0568,0.0852,0.0846,0.0895,0.0883,0.0874,0.0839,0.0816,0.0992,0.0993,0.0995,0.0996,0.0997,0,-0.1886,-0.2018,-0.2151,-0.2269,-0.2341,-0.2328,-0.2282,-0.2187,-0.202,-0.1722,-0.1407,-0.0884,-0.0397,0.0095,0.0531,0.0876,0.0768,0.0942,0.0726,0.0719,0.0714,0.0663,0.0774,0.0775,0.0776,0.0777,0,0,-0.1954,-0.2114,-0.2201,-0.2435,-0.2543,-0.2564,-0.2546,-0.2357,-0.212,-0.1772,-0.1505,-0.1138,-0.0473,-0.0176,0.026,0.0519,0.0506,0.0515,0.0642,0.032,0.031,0.0627,0.0537,0,0,0,0,0]}],[{"header":{"parameterUnit":"m.s-1","parameterCategory":2,"la1":30.2991,"la2":30.254,"lo1":-89.0895,"lo2":-89.0444,"dy":0.0017,"dx":0.0017,"nx":28,"ny":28,"refTime":"2023-10-12T03:00:00:Z","depth":"4","parameterNumber":2,"parameterNumberName":"U-component_of_CURRENTS"},"data":[0,0,0,0,0,0,0,0,0,0,0,0,0,0,0,0,0,0,0,0,0,0,0,0,0,0,0,0,0,0,0,0,0,0,0,0,0,0,0,0,0,0,0,0,0,0,0,0,0,0,0,0,0,0,0,0,0,0,-0.1978,-0.1979,0,-0.2006,-0.2006,-0.2006,-0.2037,-0.2037,-0.2038,-0.2039,-0.2058,-0.2058,-0.2057,0,0,0,0,0,0,0,0,0,0,0,0,0,-0.19,-0.1901,-0.1978,-0.1979,-0.1979,-0.2006,-0.2006,-0.2006,-0.2036,-0.2037,-0.2038,-0.2039,-0.2058,-0.2058,-0.2057,0,0,0,0,0,0,0,0,0,0,0,0,0,-0.1927,-0.1902,-0.1978,-0.2001,-0.2004,-0.2006,-0.2006,-0.2006,-0.2036,-0.2037,-0.2039,-0.204,-0.2058,-0.2058,-0.2057,-0.2029,0,0,-0.2056,-0.2056,0,0,0,0,0,0,0,0,-0.1926,-0.193,-0.1997,-0.2,-0.2003,-0.2023,-0.1986,-0.2015,-0.2036,-0.2019,-0.2039,-0.2041,-0.2047,-0.2048,-0.2044,-0.203,-0.2031,-0.2056,-0.2056,-0.2055,-0.2055,0,0,0,0,0,0,0,-0.1924,-0.1928,-0.1984,-0.1998,-0.2001,-0.1993,-0.1998,-0.1991,-0.2022,-0.2021,-0.2024,-0.2034,-0.2048,-0.2044,-0.2045,-0.2031,-0.2056,-0.2056,-0.2055,-0.2055,-0.2119,-0.2121,0,0,0,0,0,0,-0.1931,-0.1927,-0.1984,-0.1986,-0.1972,-0.1994,-0.2,-0.2011,-0.2023,-0.2027,-0.2033,-0.2035,-0.2044,-0.2045,-0.2046,-0.2128,-0.2055,-0.2055,-0.2055,-0.2117,-0.212,-0.2122,0,0,0,0,0,0,-0.1929,-0.1936,-0.1983,-0.196,-0.1966,-0.1995,-0.2007,-0.2011,-0.205,-0.2033,-0.2036,-0.2073,-0.2046,-0.2046,-0.2078,-0.2125,-0.2055,-0.2054,-0.2115,-0.2118,-0.2121,-0.2219,0,0,0,0,0,0,-0.1927,-0.1935,-0.1959,-0.1961,-0.1968,-0.2016,-0.2007,-0.2011,-0.2054,-0.2058,-0.2067,-0.2068,-0.2047,-0.2079,-0.2078,-0.2123,-0.2054,-0.2112,-0.2116,-0.212,-0.2213,-0.2225,-0.2235,0,0,0,0,0,-0.1924,-0.1948,-0.196,-0.1968,-0.1996,-0.2018,-0.2021,-0.2041,-0.2055,-0.2079,-0.2088,-0.207,-0.2102,-0.208,-0.2078,-0.2124,-0.2111,-0.2115,-0.2119,-0.2208,-0.2223,-0.2235,0,0,0,0,0,0,-0.1926,-0.1954,-0.1967,-0.1999,-0.2024,-0.2026,-0.2053,-0.2066,-0.209,-0.2104,-0.2087,-0.2088,-0.2134,-0.2115,-0.2092,-0.2155,-0.2106,-0.2111,-0.2175,-0.2188,-0.2198,-0.2212,-0.2054,0,0,0,0,0,-0.1938,-0.1967,-0.1988,-0.2018,-0.2035,-0.2052,-0.207,-0.2085,-0.2101,-0.2115,-0.2124,-0.2133,-0.2141,-0.2156,-0.2155,-0.2186,-0.2177,-0.2218,-0.2229,-0.2238,-0.2249,-0.2262,-0.2275,-0.2136,-0.2136,-0.2136,0,0,-0.1948,-0.1967,-0.1985,-0.2022,-0.2041,-0.2078,-0.2066,-0.2107,-0.2148,-0.2111,-0.2176,-0.217,-0.2158,-0.2195,-0.2214,-0.2192,-0.2279,-0.2243,-0.2251,-0.2257,-0.2268,-0.2281,-0.2293,-0.2139,-0.2139,-0.2138,0,0,-0.1971,-0.2002,-0.2033,-0.2063,-0.2106,-0.2118,-0.2143,-0.2173,-0.2203,-0.2248,-0.2238,-0.2264,-0.228,-0.2282,-0.2282,-0.2353,-0.2332,-0.2363,-0.2433,-0.2446,-0.2458,-0.2467,-0.2497,-0.2509,-0.2372,-0.2372,-0.2373,0,-0.1986,-0.2025,-0.2046,-0.2087,-0.2123,-0.2147,-0.2193,-0.2222,-0.2263,-0.2294,-0.2288,-0.233,-0.232,-0.2363,-0.2392,-0.2378,-0.2388,-0.2383,-0.246,-0.247,-0.2478,-0.2506,-0.2517,-0.2378,-0.2377,-0.2377,-0.2376,0,-0.2021,-0.2072,-0.2096,-0.2158,-0.22,-0.2244,-0.229,-0.2342,-0.2378,-0.24,-0.2463,-0.2448,-0.2473,-0.2479,-0.2457,-0.2521,-0.2511,-0.2469,-0.2426,-0.2498,-0.2523,-0.2533,-0.2385,-0.2383,-0.2382,-0.238,0,0,-0.1991,-0.2102,-0.2111,-0.2165,-0.2245,-0.2279,-0.2364,-0.2434,-0.2502,-0.2533,-0.2608,-0.2617,-0.2615,-0.2615,-0.2596,-0.2611,-0.2682,-0.2579,-0.2577,-0.2608,-0.2737,-0.2599,-0.2597,-0.2656,-0.2658,-0.2659,-0.2739,0,-0.2013,-0.2103,-0.2155,-0.2254,-0.2307,-0.2376,-0.2454,-0.2527,-0.2585,-0.2664,-0.2666,-0.2718,-0.2666,-0.2688,-0.2698,-0.2686,-0.271,-0.2666,-0.2663,-0.2664,-0.2531,-0.2603,-0.2665,-0.2746,-0.2749,-0.275,-0.2751,0,-0.2011,-0.2081,-0.2179,-0.2318,-0.2349,-0.242,-0.2556,-0.2627,-0.2735,-0.2784,-0.2834,-0.2839,-0.288,-0.2817,-0.2838,-0.2816,-0.2794,-0.2773,-0.2775,-0.2615,-0.2543,-0.2653,-0.2769,-0.2768,-0.2766,-0.2765,-0.2764,0,-0.1952,-0.2091,-0.2175,-0.2221,-0.2376,-0.2452,-0.2539,-0.2664,-0.2747,-0.2863,-0.2931,-0.2964,-0.2999,-0.2974,-0.2934,-0.29,-0.2951,-0.2889,-0.2748,-0.2739,-0.2795,-0.2783,-0.2907,-0.2906,-0.2906,-0.2906,-0.2906,0,-0.1922,-0.1995,-0.2167,-0.2211,-0.2336,-0.2448,-0.2583,-0.2679,-0.2827,-0.2917,-0.2983,-0.3036,-0.3041,-0.306,-0.2999,-0.2912,-0.3001,-0.2778,-0.2749,-0.2838,-0.283,-0.2804,-0.2791,-0.2909,-0.2908,-0.2908,-0.2907,0,-0.1827,-0.1937,-0.2051,-0.224,-0.2308,-0.2395,-0.2611,-0.2696,-0.2851,-0.2974,-0.3016,-0.3126,-0.3135,-0.3131,-0.3109,-0.2987,-0.2919,-0.2866,-0.3006,-0.2981,-0.2688,-0.268,-0.2715,-0.2711,-0.2707,-0.2704,-0.2702,0,-0.1781,-0.1827,-0.2047,-0.212,-0.2213,-0.237,-0.247,-0.2675,-0.2765,-0.2988,-0.3022,-0.3125,-0.3157,-0.3033,-0.3029,-0.2939,-0.2879,-0.2845,-0.2721,-0.27,-0.2669,-0.2666,-0.2663,-0.2696,-0.2695,-0.2694,-0.2693,0,-0.1686,-0.1776,-0.1864,-0.2018,-0.2145,-0.2283,-0.2445,-0.251,-0.2724,-0.2908,-0.2961,-0.2958,-0.2986,-0.2933,-0.2902,-0.2815,-0.2861,-0.2805,-0.281,-0.2694,-0.2677,-0.2649,-0.265,-0.2681,-0.2682,-0.2684,-0.2684,0,-0.1602,-0.1639,-0.1757,-0.1875,-0.2029,-0.2121,-0.2251,-0.2367,-0.2491,-0.2753,-0.2762,-0.2857,-0.2978,-0.2872,-0.2829,-0.2756,-0.2681,-0.2562,-0.2578,-0.2592,-0.2502,-0.246,-0.2388,0,0,0,0,0,-0.1501,-0.1511,-0.1605,-0.1717,-0.1864,-0.1942,-0.2185,-0.2316,-0.2549,-0.2535,-0.2651,-0.2662,-0.263,-0.2672,-0.2556,-0.2724,-0.2664,-0.2576,-0.253,-0.2612,-0.2626,-0.2525,0,0,0,0,0,0,-0.1426,-0.1489,-0.153,-0.1546,-0.1576,-0.1716,-0.1854,-0.203,-0.2053,-0.2296,-0.2292,-0.2472,-0.2466,-0.2623,-0.2476,-0.2489,-0.2405,-0.2653,-0.2646,-0.2604,-0.2617,-0.2628,-0.253,0,0,0,0,0]},{"header":{"parameterUnit":"m.s-1","parameterCategory":2,"la1":30.2991,"la2":30.254,"lo1":-89.0895,"lo2":-89.0444,"dy":0.0017,"dx":0.0017,"nx":28,"ny":28,"refTime":"2023-10-12T03:00:00:Z","depth":"4","parameterNumber":3,"parameterNumberName":"V-component_of_CURRENTS"},"data":[0,0,0,0,0,0,0,0,0,0,0,0,0,0,0,0,0,0,0,0,0,0,0,0,0,0,0,0,0,0,0,0,0,0,0,0,0,0,0,0,0,0,0,0,0,0,0,0,0,0,0,0,0,0,0,0,0,0,-0.0077,-0.0076,0,0.0029,0.003,0.0031,0.0088,0.0088,0.0088,0.0088,0.0205,0.0208,0.0211,0,0,0,0,0,0,0,0,0,0,0,0,0,-0.0164,-0.0163,-0.0077,-0.0076,-0.0074,0.0028,0.003,0.0031,0.0088,0.0088,0.0088,0.0088,0.0204,0.0208,0.0211,0,0,0,0,0,0,0,0,0,0,0,0,0,-0.0099,-0.0163,-0.0077,-0.0034,-0.0029,0.0028,0.003,0.0032,0.0088,0.0088,0.0088,0.0088,0.0203,0.0207,0.0212,0.0237,0,0,0.0226,0.0228,0,0,0,0,0,0,0,0,-0.0103,-0.0096,-0.0042,-0.0037,-0.0031,0.0045,0.0042,0.0101,0.0088,0.0044,0.0088,0.0088,0.0152,0.0161,0.0181,0.0242,0.0247,0.0226,0.0229,0.0231,0.0232,0,0,0,0,0,0,0,-0.0107,-0.01,-0.0035,-0.004,-0.0034,0.0003,0.0011,0.0054,0.0096,0.0048,0.0052,0.0063,0.0155,0.0176,0.0184,0.0249,0.0226,0.023,0.0233,0.0234,0.0337,0.0337,0,0,0,0,0,0,-0.0124,-0.0104,-0.0038,-0.0032,-0.0068,0.0004,0.0014,0.0021,0.0096,0.0107,0.0063,0.0065,0.0168,0.0179,0.0188,0.0223,0.0231,0.0235,0.0238,0.0337,0.0337,0.0337,0,0,0,0,0,0,-0.0127,-0.012,-0.0042,-0.0065,-0.0053,0.0004,0.0012,0.0023,0.0043,0.0107,0.0119,0.0072,0.0169,0.0182,0.0226,0.0228,0.0237,0.0241,0.0337,0.0337,0.0337,0.0293,0,0,0,0,0,0,-0.013,-0.0121,-0.0126,-0.0067,-0.0053,-0.0017,0.0012,0.0025,0.0049,0.0054,0.0119,0.013,0.017,0.0219,0.0231,0.0235,0.0245,0.0337,0.0337,0.0337,0.0295,0.0292,0.0289,0,0,0,0,0,-0.0133,-0.0138,-0.0127,-0.0119,-0.0059,-0.0017,-0.0007,0.0035,0.0049,0.0055,0.0103,0.0128,0.0227,0.0223,0.0237,0.0242,0.0337,0.0337,0.0337,0.0296,0.0292,0.0289,0,0,0,0,0,0,-0.0176,-0.0131,-0.0117,-0.0109,-0.0071,-0.0008,-0.0,0.003,0.0073,0.0074,0.0135,0.0149,0.0186,0.0219,0.0213,0.027,0.0284,0.0287,0.0248,0.0245,0.0242,0.0223,0.0248,0,0,0,0,0,-0.019,-0.0185,-0.0133,-0.0128,-0.0113,-0.0059,-0.0038,-0.001,0.0038,0.0056,0.0105,0.0154,0.0197,0.0224,0.0264,0.0301,0.0329,0.031,0.0308,0.0305,0.0298,0.0345,0.0346,0.0337,0.0337,0.0337,0,0,-0.0208,-0.0181,-0.0179,-0.0138,-0.0107,-0.009,-0.0046,-0.0021,-0.0002,0.0062,0.0099,0.0144,0.0203,0.0242,0.0261,0.0271,0.0322,0.0305,0.0303,0.0297,0.0345,0.0346,0.0347,0.0337,0.0337,0.0337,0,0,-0.0238,-0.0217,-0.0222,-0.0195,-0.0154,-0.0118,-0.0115,-0.0055,-0.0026,0.0014,0.0065,0.0113,0.0176,0.0227,0.0258,0.0265,0.0302,0.0272,0.0252,0.0298,0.0299,0.03,0.0333,0.0337,0.0276,0.0276,0.0276,0,-0.0263,-0.0261,-0.0217,-0.0211,-0.0196,-0.0136,-0.0137,-0.0093,-0.0026,0.0,0.0013,0.012,0.0169,0.0233,0.0234,0.026,0.0283,0.026,0.0294,0.0296,0.0298,0.0331,0.0337,0.0274,0.0274,0.0275,0.0275,0,-0.029,-0.0291,-0.0291,-0.0267,-0.0244,-0.0236,-0.0175,-0.0145,-0.0107,-0.0057,0.0006,0.0081,0.0144,0.0169,0.0204,0.0249,0.0259,0.028,0.03,0.0296,0.0332,0.0338,0.0271,0.0272,0.0273,0.0273,0,0,-0.0343,-0.032,-0.0323,-0.0329,-0.0277,-0.0265,-0.0229,-0.0179,-0.016,-0.0084,-0.0047,0.0042,0.0087,0.0125,0.0185,0.0231,0.0269,0.0254,0.0257,0.0281,0.0357,0.034,0.0346,0.0293,0.0294,0.0294,0.0375,0,-0.0383,-0.0407,-0.037,-0.0388,-0.0396,-0.0332,-0.031,-0.0253,-0.0193,-0.0139,-0.0038,0.0013,0.0072,0.0096,0.0156,0.0243,0.0284,0.0244,0.0361,0.0365,0.0347,0.0353,0.0298,0.038,0.0381,0.0383,0.0383,0,-0.042,-0.0435,-0.0469,-0.0464,-0.0461,-0.0457,-0.0417,-0.0387,-0.0284,-0.0236,-0.0147,-0.0065,0.0037,0.0069,0.0222,0.0192,0.0261,0.0326,0.0331,0.0334,0.036,0.0387,0.0396,0.0395,0.0394,0.0393,0.0392,0,-0.0492,-0.0502,-0.054,-0.0537,-0.0516,-0.0516,-0.0502,-0.0423,-0.0402,-0.0296,-0.0264,-0.0123,-0.006,0.0059,0.0213,0.0211,0.0368,0.0386,0.0438,0.0438,0.0448,0.0446,0.047,0.047,0.047,0.0469,0.0469,0,-0.0541,-0.0573,-0.0584,-0.0604,-0.0658,-0.0604,-0.0628,-0.058,-0.0507,-0.0484,-0.0328,-0.027,-0.0064,0.0067,0.0194,0.0342,0.036,0.0431,0.0458,0.0427,0.0422,0.0453,0.045,0.0472,0.0472,0.0471,0.0471,0,-0.0601,-0.0606,-0.0662,-0.0679,-0.0694,-0.0734,-0.0735,-0.0745,-0.0652,-0.0613,-0.0583,-0.038,-0.0209,-0.0003,0.02,0.0306,0.0453,0.0494,0.0441,0.0465,0.0493,0.0487,0.0554,0.0554,0.0554,0.0554,0.0554,0,-0.0628,-0.0664,-0.0742,-0.0802,-0.0816,-0.0865,-0.0905,-0.084,-0.083,-0.0679,-0.0664,-0.0473,-0.0328,-0.0049,0.0171,0.0419,0.0449,0.0524,0.0513,0.0482,0.0503,0.0496,0.049,0.0554,0.0554,0.0554,0.0554,0,-0.0684,-0.072,-0.0776,-0.0911,-0.0982,-0.1056,-0.1085,-0.1079,-0.0984,-0.0898,-0.0741,-0.0539,-0.0338,-0.008,0.0121,0.03,0.0482,0.0526,0.0527,0.0516,0.0484,0.0502,0.0496,0.0555,0.0555,0.0555,0.0555,0,-0.0729,-0.0799,-0.0893,-0.1006,-0.112,-0.1205,-0.1207,-0.1173,-0.1138,-0.0936,-0.089,-0.0617,-0.0438,-0.0142,0.0047,0.0226,0.0265,0.0313,0.0326,0.0328,0.0248,0.0173,0.0167,0,0,0,0,0,-0.0761,-0.0854,-0.098,-0.1111,-0.123,-0.1287,-0.1312,-0.1281,-0.117,-0.1092,-0.098,-0.0785,-0.0442,-0.0266,-0.01,0.0029,0.0281,0.023,0.0336,0.0556,0.0556,0.0499,0,0,0,0,0,0,-0.079,-0.0911,-0.0991,-0.1177,-0.1277,-0.1398,-0.1416,-0.1344,-0.127,-0.1122,-0.0949,-0.077,-0.0452,-0.0564,-0.0111,-0.0043,0.0044,0.0417,0.042,0.0556,0.0556,0.0556,0.0498,0,0,0,0,0]}]]